sat.trackr.live / text

‹ back to catalog

STARLINK-33651

NORAD 63588 · 2025-076V

PAYLOAD ACTIVE UNKNOWN

§ Identity

Operator
Country
US
Launch date
2025-04-14
Launch site
AFETR
Launch vehicle
Mass (kg)
RCS (m²)

Purposes: comms

External: N2YO · Heavens-Above · Gunter

§ Orbital elements

Epoch: 2026-05-25T00:25:37.175232Z

Period
94.27 min
Inclination
43.0038°
Eccentricity
0.0003564
Mean motion
15.27597506 rev/d
Perigee alt
480.6 km
Apogee alt
485.4 km
Semi-major
6,861.1 km
B*
5.3153e-4
RAAN
250.6460°
Arg perigee
271.6830°
Mean anomaly
88.3614°
Rev number
6,350

§ Raw data

STARLINK-336511 63588U 25076V   26145.01779138  .00014402  00000+0  53153-3 0  99942 63588  43.0038 250.6460 0003564 271.6830  88.3614 15.27597506 63509

JSON: /api/v1/satellites/63588 · /tle

For live sub-satellite position, see the globe view (requires WebGL).

§ Visibility from observer

Set your observer location to see the next 7 days of passes ≥ 10°. The values pass through the URL so the page stays shareable.

No JS? Fill the form by hand. The geolocation button needs JavaScript.